Change the Weather History Date:

Monday, September 30, 2013

  Actual Average (KDMN) Record (KDMN)
Temperature  
Mean Temperature 63 °F 68 °F  
Max Temperature 80 °F 84 °F 93 °F (2003)
Min Temperature 46 °F 53 °F 36 °F (1986)
Degree Days  
Heating Degree Days 2    
Growing Degree Days 13 (Base 50)    
Moisture  
Dew Point 31 °F    
Average Humidity 35    
Maximum Humidity 66    
Minimum Humidity 13    
Precipitation  
Precipitation 0.00 in 0.04 in 1.10 in (1987)
Month to date precipitation 1.30  
Year to date precipitation 8.89  
Sea Level Pressure  
Sea Level Pressure 30.13 in    
Wind  
Wind Speed 10 mph (NW)    
Max Wind Speed 21 mph    
Max Gust Speed 25 mph    
Visibility 10 miles    
Events Thunderstorm    
T = Trace of Precipitation, MM = Missing Value Source: NWS Daily Summary

Daily Weather History Graph

Daily Weather History Graph

Search for Another Location

Airport or City:

Trip Planner

Search our weather history database for the weather conditions in past years. The results will help you decide how hot, cold, wet, or windy it might be!

Date:

Astronomy

Sep. 30, 2013 Rise Set
Actual Time 7:06 AM MDT 6:58 PM MDT
Civil Twilight 6:41 AM MDT 7:22 PM MDT
Nautical Twilight 6:13 AM MDT 7:51 PM MDT
Astronomical Twilight 5:44 AM MDT 8:19 PM MDT
Moon 2:58 AM MDT (9/30) 4:19 PM MDT (9/30)
Length of Visible Light 12h 41m
Length of Day
11h 51m
Waning Crescent, 18% of the Moon is Illuminated
Sep 30
Waning Crescent
Oct 4
New
Oct 11
First Quarter
Oct 18
Full
Oct 26
Last Quarter

Hourly Weather History & Observations

Time (MDT) Temp. Windchill Dew Point Humidity Pressure Visibility Wind Dir Wind Speed Gust Speed Precip Events Conditions
12:15 AM 50.0 °F - 37.4 °F 62% 30.19 in 10.0 mi NW 6.9 mph - N/A   Clear
12:35 AM 50.0 °F - 35.6 °F 58% 30.19 in 10.0 mi NNW 3.5 mph - N/A   Clear
12:55 AM 50.0 °F - 37.4 °F 62% 30.19 in 10.0 mi NNW 6.9 mph - N/A   Clear
1:15 AM 50.0 °F - 35.6 °F 58% 30.19 in 10.0 mi NNW 8.1 mph - N/A   Clear
1:35 AM 50.0 °F - 37.4 °F 62% 30.18 in 10.0 mi NNW 9.2 mph - N/A   Clear
1:55 AM 50.0 °F - 37.4 °F 62% 30.18 in 10.0 mi NNW 11.5 mph - N/A   Clear
2:15 AM 48.2 °F - 37.4 °F 66% 30.18 in 10.0 mi NNW 9.2 mph - N/A   Clear
2:35 AM 50.0 °F - 35.6 °F 58% 30.18 in 10.0 mi Calm Calm - N/A   Clear
2:55 AM 50.0 °F - 35.6 °F 58% 30.17 in 10.0 mi Calm Calm - N/A   Clear
3:15 AM 48.2 °F - 37.4 °F 66% 30.17 in 10.0 mi NW 5.8 mph - N/A   Clear
3:35 AM 46.4 °F 41.9 °F 35.6 °F 66% 30.16 in 10.0 mi North 9.2 mph - N/A   Clear
3:55 AM 48.2 °F - 37.4 °F 66% 30.16 in 10.0 mi North 10.4 mph - N/A   Clear
4:15 AM 51.8 °F - 37.4 °F 58% 30.16 in 10.0 mi North 10.4 mph - N/A   Clear
4:35 AM 53.6 °F - 35.6 °F 51% 30.16 in 10.0 mi NNW 11.5 mph - N/A   Clear
4:55 AM 53.6 °F - 35.6 °F 51% 30.16 in 10.0 mi North 12.7 mph - N/A   Clear
5:15 AM 55.4 °F - 35.6 °F 47% 30.16 in 10.0 mi North 9.2 mph - N/A   Clear
5:35 AM 51.8 °F - 35.6 °F 54% 30.16 in 10.0 mi NW 11.5 mph - N/A   Clear
5:55 AM 53.6 °F - 35.6 °F 51% 30.16 in 10.0 mi NW 11.5 mph - N/A   Clear
6:15 AM 51.8 °F - 35.6 °F 54% 30.16 in 10.0 mi NW 12.7 mph - N/A Thunderstorm Clear
6:35 AM 51.8 °F - 35.6 °F 54% 30.16 in 10.0 mi NNW 10.4 mph - N/A   Clear
6:55 AM 53.6 °F - 35.6 °F 51% 30.17 in 10.0 mi NNW 9.2 mph - N/A   Clear
7:15 AM 48.2 °F - 35.6 °F 62% 30.17 in 10.0 mi NW 12.7 mph - N/A   Clear
7:35 AM 53.6 °F - 35.6 °F 51% 30.17 in 10.0 mi NNW 11.5 mph - N/A   Clear
7:55 AM 53.6 °F - 35.6 °F 51% 30.17 in 10.0 mi NNW 8.1 mph - N/A   Clear
8:15 AM 57.2 °F - 35.6 °F 44% 30.17 in 10.0 mi NW 13.8 mph - N/A   Clear
8:35 AM 59.0 °F - 37.4 °F 45% 30.17 in 10.0 mi NW 12.7 mph - N/A   Clear
8:55 AM 62.6 °F - 37.4 °F 39% 30.17 in 10.0 mi NW 12.7 mph - N/A   Clear
9:15 AM 64.4 °F - 37.4 °F 37% 30.17 in 10.0 mi NW 12.7 mph - N/A   Clear
9:35 AM 66.2 °F - 37.4 °F 35% 30.17 in 10.0 mi NW 12.7 mph - N/A   Clear
9:55 AM 68.0 °F - 37.4 °F 33% 30.18 in 10.0 mi NW 12.7 mph - N/A Thunderstorm Clear
10:15 AM 71.6 °F - 35.6 °F 27% 30.18 in 10.0 mi NW 11.5 mph - N/A   Clear
10:35 AM 71.6 °F - 33.8 °F 25% 30.18 in 10.0 mi NW 16.1 mph 21.9 mph N/A Thunderstorm Clear
10:55 AM 73.4 °F - 32.0 °F 22% 30.17 in 10.0 mi WNW 15.0 mph 21.9 mph N/A Thunderstorm Clear
11:15 AM 73.4 °F - 32.0 °F 22% 30.17 in 10.0 mi WNW 18.4 mph 23.0 mph N/A   Clear
11:35 AM 73.4 °F - 32.0 °F 22% 30.17 in 10.0 mi WNW 20.7 mph 24.2 mph N/A   Clear
11:55 AM 75.2 °F - 32.0 °F 21% 30.16 in 10.0 mi WNW 17.3 mph 25.3 mph N/A   Clear
12:15 PM 75.2 °F - 30.2 °F 19% 30.16 in 10.0 mi WNW 19.6 mph 25.3 mph N/A   Clear
12:35 PM 75.2 °F - 32.0 °F 21% 30.15 in 10.0 mi WNW 13.8 mph 20.7 mph N/A   Clear
12:55 PM 75.2 °F - 32.0 °F 21% 30.14 in 10.0 mi WNW 12.7 mph 21.9 mph N/A   Clear
1:15 PM 77.0 °F - 32.0 °F 19% 30.13 in 10.0 mi WNW 12.7 mph 18.4 mph N/A   Clear
1:35 PM 77.0 °F - 30.2 °F 18% 30.12 in 10.0 mi WNW 16.1 mph 25.3 mph N/A   Clear
1:55 PM 77.0 °F - 28.4 °F 17% 30.11 in 10.0 mi West 15.0 mph 25.3 mph N/A   Clear
2:15 PM 78.8 °F - 24.8 °F 14% 30.10 in 10.0 mi WNW 13.8 mph 23.0 mph N/A   Clear
2:35 PM 77.0 °F - 32.0 °F 19% 30.09 in 10.0 mi NW 19.6 mph 23.0 mph N/A   Clear
2:55 PM 78.8 °F - 32.0 °F 18% 30.09 in 10.0 mi WNW 13.8 mph 21.9 mph N/A   Clear
3:15 PM 78.8 °F - 32.0 °F 18% 30.09 in 10.0 mi NW 12.7 mph 18.4 mph N/A   Clear
3:35 PM 80.6 °F - 28.4 °F 15% 30.08 in 10.0 mi NW 15.0 mph 23.0 mph N/A   Clear
3:55 PM 80.6 °F - 28.4 °F 15% 30.07 in 10.0 mi NW 15.0 mph 20.7 mph N/A   Clear
4:15 PM 80.6 °F - 26.6 °F 14% 30.07 in 10.0 mi West 16.1 mph 21.9 mph N/A   Clear
4:35 PM 80.6 °F - 26.6 °F 14% 30.07 in 10.0 mi WNW 16.1 mph 20.7 mph N/A   Clear
4:55 PM 80.6 °F - 24.8 °F 13% 30.07 in 10.0 mi WNW 16.1 mph 23.0 mph N/A   Unknown
5:15 PM 78.8 °F - 23.0 °F 13% 30.06 in 10.0 mi WNW 17.3 mph - N/A   Unknown
5:35 PM 78.8 °F - 23.0 °F 13% 30.06 in 10.0 mi WNW 16.1 mph 24.2 mph N/A Thunderstorm Unknown
5:55 PM 77.0 °F - 23.0 °F 13% 30.06 in 10.0 mi WNW 18.4 mph 23.0 mph N/A   Clear
6:15 PM 77.0 °F - 24.8 °F 14% 30.06 in 10.0 mi WNW 18.4 mph - N/A   Clear
6:35 PM 75.2 °F - 24.8 °F 15% 30.06 in 10.0 mi West 10.4 mph - N/A   Clear
6:55 PM 73.4 °F - 23.0 °F 15% 30.07 in 10.0 mi West 6.9 mph - N/A   Clear
7:15 PM 69.8 °F - 23.0 °F 17% 30.07 in 10.0 mi WSW 5.8 mph - N/A   Clear
7:35 PM 69.8 °F - 23.0 °F 17% 30.07 in 10.0 mi WNW 4.6 mph - N/A   Clear
7:55 PM 60.8 °F - 24.8 °F 25% 30.07 in 10.0 mi NW 6.9 mph - N/A Thunderstorm Clear
8:15 PM 57.2 °F - 24.8 °F 29% 30.07 in 10.0 mi NW 11.5 mph - N/A   Clear
8:35 PM 59.0 °F - 24.8 °F 27% 30.08 in 10.0 mi NNW 11.5 mph - N/A   Clear
8:55 PM 59.0 °F - 23.0 °F 25% 30.09 in 10.0 mi NNW 11.5 mph - N/A   Clear
9:15 PM 57.2 °F - 24.8 °F 29% 30.09 in 10.0 mi North 10.4 mph - N/A   Clear
9:35 PM 59.0 °F - 23.0 °F 25% 30.10 in 10.0 mi North 12.7 mph - N/A   Clear
9:55 PM 59.0 °F - 24.8 °F 27% 30.10 in 10.0 mi North 12.7 mph - N/A   Clear
10:15 PM 57.2 °F - 24.8 °F 29% 30.11 in 10.0 mi North 11.5 mph - N/A   Clear
10:35 PM 57.2 °F - 24.8 °F 29% 30.11 in 10.0 mi NNW 11.5 mph - N/A Thunderstorm Clear
10:55 PM 57.2 °F - 24.8 °F 29% 30.11 in 10.0 mi NNW 10.4 mph - N/A   Clear
11:15 PM 53.6 °F - 24.8 °F 33% 30.11 in 10.0 mi NW 9.2 mph - N/A   Clear
11:35 PM 53.6 °F - 26.6 °F 35% 30.11 in 10.0 mi NW 10.4 mph - N/A   Clear
11:55 PM 53.6 °F - 26.6 °F 35% 30.11 in 10.0 mi NW 10.4 mph - N/A   Clear